Location: ??
(35.5052°N, 139.7262°E)
Time: 03:16:10
(UTC+00:00)

CZ-2D R/B - Pass Details

Date: 20 June 2021
Orbit: 791 x 845 km, 98.7° (Epoch: 26 July)

Event Time Altitude Azimuth Distance (km) Brightness Sun altitude
Rises 15:07:35 0° 31° (NNE) 3,294 6.2 -30.8°
Reaches altitude 10° 15:10:34 10° 48° (NE) 2,361 5.1 -30.7°
Enters shadow 15:13:47 19° 87° (E) 1,792 4.0 -30.6°
